SWA1158 KPBI-KHOU

Flight info

Callsign SWA1158
Flight time N/A
Altitude 38000
Route TBIRD7 OHIIO JABBS ROYCE
Aircraft B738/M-VGDW/C

Departure

Time 2026-05-08 04:55
Airport Palm Beach International Airport (KPBI)

Arrival

Time N/A
Airport William P. Hobby Airport (KHOU)
Time Latitude Longitude Altitude Speed Heading
2026-05-08 04:43 26.68891 -80.09335 18 ft 0 kts 160°
2026-05-08 04:46 26.68909 -80.09342 18 ft 4 kts 160°
2026-05-08 04:46 26.68935 -80.09352 18 ft 0 kts 160°
2026-05-08 04:47 26.68931 -80.09352 18 ft 0 kts 179°
2026-05-08 04:47 26.68926 -80.09356 18 ft 1 kts 224°
2026-05-08 04:47 26.68925 -80.09357 18 ft 0 kts 227°
2026-05-08 04:50 26.68924 -80.09358 18 ft 2 kts 227°
2026-05-08 04:50 26.68882 -80.09404 18 ft 14 kts 223°
2026-05-08 04:50 26.68786 -80.09500 18 ft 3 kts 224°
2026-05-08 04:51 26.68761 -80.09528 18 ft 3 kts 221°
2026-05-08 04:51 26.68707 -80.09573 18 ft 15 kts 221°
2026-05-08 04:51 26.68710 -80.09713 18 ft 26 kts 311°
2026-05-08 04:51 26.68871 -80.09885 18 ft 28 kts 315°
2026-05-08 04:52 26.69031 -80.10066 18 ft 32 kts 316°
2026-05-08 04:52 26.69106 -80.10143 18 ft 14 kts 316°
2026-05-08 04:52 26.69150 -80.10200 18 ft 0 kts 300°
2026-05-08 04:53 26.69166 -80.10244 18 ft 12 kts 284°
2026-05-08 04:54 26.69139 -80.10332 18 ft 10 kts 179°
2026-05-08 04:54 26.69114 -80.10321 18 ft 0 kts 141°
2026-05-08 04:55 26.69067 -80.10274 18 ft 38 kts 137°
2026-05-08 04:55 26.68679 -80.09848 18 ft 115 kts 135°
2026-05-08 04:55 26.67959 -80.09042 130 ft 168 kts 134°
2026-05-08 04:55 26.67273 -80.08151 1170 ft 146 kts 129°
2026-05-08 04:56 26.66711 -80.07140 1554 ft 173 kts 114°
2026-05-08 04:56 26.66534 -80.05705 1932 ft 199 kts 80°
2026-05-08 04:56 26.67090 -80.04369 2894 ft 187 kts 60°
2026-05-08 04:56 26.67710 -80.02968 3130 ft 218 kts 64°
2026-05-08 04:57 26.68648 -80.01657 3900 ft 219 kts 45°
2026-05-08 04:57 26.69900 -80.00699 4597 ft 222 kts 25°
2026-05-08 04:57 26.71324 -80.00049 5236 ft 228 kts 19°
2026-05-08 04:57 26.72950 -79.99504 5256 ft 261 kts
2026-05-08 04:58 26.74811 -79.99532 5477 ft 278 kts 353°
2026-05-08 04:58 26.76715 -79.99813 6112 ft 278 kts 351°
2026-05-08 04:58 26.78577 -80.00369 6622 ft 280 kts 334°
2026-05-08 04:58 26.80156 -80.01653 7170 ft 280 kts 313°
2026-05-08 04:59 26.81372 -80.03341 7688 ft 281 kts 301°
2026-05-08 04:59 26.82062 -80.05371 8181 ft 282 kts 281°
2026-05-08 04:59 26.82350 -80.07520 8670 ft 283 kts 278°
2026-05-08 04:59 26.82669 -80.09684 9141 ft 285 kts 279°
2026-05-08 05:00 26.83011 -80.11886 9592 ft 287 kts 279°
2026-05-08 05:00 26.83357 -80.14097 10022 ft 289 kts 279°
2026-05-08 05:00 26.83705 -80.16321 10228 ft 299 kts 279°
2026-05-08 05:00 26.84084 -80.18744 10156 ft 331 kts 279°
2026-05-08 05:01 26.84485 -80.21321 10814 ft 338 kts 280°
2026-05-08 05:01 26.84885 -80.23889 11542 ft 342 kts 280°
2026-05-08 05:01 26.85296 -80.26537 12251 ft 346 kts 280°
2026-05-08 05:01 26.85793 -80.29146 12961 ft 348 kts 288°
2026-05-08 05:02 26.86904 -80.31548 13679 ft 350 kts 305°
2026-05-08 05:02 26.88379 -80.33715 14355 ft 352 kts 309°
2026-05-08 05:02 26.90219 -80.35519 14990 ft 356 kts 326°
2026-05-08 05:02 26.92468 -80.36674 15598 ft 362 kts 341°
2026-05-08 05:03 26.94914 -80.37318 16158 ft 365 kts 340°
2026-05-08 05:03 26.97262 -80.38348 16752 ft 365 kts 335°
2026-05-08 05:03 26.99596 -80.39439 17288 ft 368 kts 334°
2026-05-08 05:03 27.01958 -80.40544 17857 ft 370 kts 334°
2026-05-08 05:04 27.04324 -80.41653 18365 ft 373 kts 333°
2026-05-08 05:04 27.06739 -80.42786 18894 ft 375 kts 333°
2026-05-08 05:04 27.09118 -80.43906 19376 ft 377 kts 333°
2026-05-08 05:04 27.11547 -80.45083 19840 ft 377 kts 329°
2026-05-08 05:05 27.13645 -80.46744 20283 ft 371 kts 314°
2026-05-08 05:05 27.15387 -80.48861 20731 ft 368 kts 302°
2026-05-08 05:05 27.16552 -80.51369 21175 ft 364 kts 289°
2026-05-08 05:05 27.17391 -80.54060 21650 ft 364 kts 286°
2026-05-08 05:06 27.18155 -80.56771 22074 ft 365 kts 285°
2026-05-08 05:06 27.18890 -80.59486 22492 ft 367 kts 284°
2026-05-08 05:06 27.19620 -80.62226 22897 ft 368 kts 284°
2026-05-08 05:06 27.20342 -80.64954 23295 ft 369 kts 284°
2026-05-08 05:07 27.21078 -80.67748 23704 ft 370 kts 283°
2026-05-08 05:07 27.21803 -80.70504 24082 ft 371 kts 283°
2026-05-08 05:07 27.22534 -80.73286 24456 ft 373 kts 283°
2026-05-08 05:07 27.23271 -80.76096 24811 ft 374 kts 283°
2026-05-08 05:08 27.23999 -80.78875 25148 ft 376 kts 283°
2026-05-08 05:08 27.24735 -80.81689 25478 ft 377 kts 283°
2026-05-08 05:08 27.25476 -80.84533 25810 ft 378 kts 283°
2026-05-08 05:08 27.26210 -80.87354 26131 ft 379 kts 283°
2026-05-08 05:09 27.26955 -80.90204 26439 ft 381 kts 283°
2026-05-08 05:09 27.27694 -80.93035 26719 ft 382 kts 283°
2026-05-08 05:09 27.28446 -80.95923 26996 ft 384 kts 283°
2026-05-08 05:09 27.29186 -80.98780 27254 ft 385 kts 282°
2026-05-08 05:10 27.29941 -81.01688 27512 ft 387 kts 283°
2026-05-08 05:10 27.31443 -81.07469 28015 ft 389 kts 282°
2026-05-08 05:10 27.32201 -81.10391 28257 ft 390 kts 282°
2026-05-08 05:11 27.32966 -81.13344 28484 ft 392 kts 282°
2026-05-08 05:11 27.33724 -81.16273 28832 ft 390 kts 282°
2026-05-08 05:11 27.34466 -81.19164 29127 ft 390 kts 282°
2026-05-08 05:11 27.35225 -81.22103 29733 ft 387 kts 282°
2026-05-08 05:12 27.35968 -81.24975 30375 ft 384 kts 282°
2026-05-08 05:12 27.36706 -81.27832 30946 ft 381 kts 282°
2026-05-08 05:12 27.37435 -81.30673 31505 ft 378 kts 281°
2026-05-08 05:12 27.38156 -81.33489 32039 ft 376 kts 281°
2026-05-08 05:13 27.38874 -81.36280 32552 ft 373 kts 281°
2026-05-08 05:13 27.39599 -81.39096 33051 ft 371 kts 281°
2026-05-08 05:13 27.40311 -81.41867 33527 ft 369 kts 281°
2026-05-08 05:13 27.41013 -81.44617 33983 ft 366 kts 281°
2026-05-08 05:14 27.41709 -81.47349 34388 ft 365 kts 281°
2026-05-08 05:14 27.42412 -81.50093 34763 ft 365 kts 281°
2026-05-08 05:14 27.43108 -81.52817 35131 ft 364 kts 281°
2026-05-08 05:14 27.43804 -81.55540 35485 ft 363 kts 281°
2026-05-08 05:15 27.44494 -81.58245 35826 ft 362 kts 281°
2026-05-08 05:15 27.45192 -81.60983 36158 ft 361 kts 281°
2026-05-08 05:15 27.45879 -81.63679 36453 ft 361 kts 281°
2026-05-08 05:15 27.46571 -81.66403 36752 ft 361 kts 281°
2026-05-08 05:16 27.47253 -81.69097 37045 ft 361 kts 281°
2026-05-08 05:16 27.47939 -81.71794 37325 ft 361 kts 281°
2026-05-08 05:16 27.48631 -81.74522 37598 ft 361 kts 281°
2026-05-08 05:16 27.49321 -81.77241 37856 ft 361 kts 281°
2026-05-08 05:17 27.50002 -81.79930 38001 ft 362 kts 281°
2026-05-08 05:17 27.51408 -81.85494 38028 ft 375 kts 281°
2026-05-08 05:18 27.52848 -81.91201 38029 ft 388 kts 281°
2026-05-08 05:18 27.54345 -81.97146 38021 ft 397 kts 281°
2026-05-08 05:19 27.55843 -82.03093 38014 ft 395 kts 281°
2026-05-08 05:19 27.57339 -82.09050 38008 ft 395 kts 281°
2026-05-08 05:20 27.58823 -82.14974 38006 ft 395 kts 281°
2026-05-08 05:20 27.60311 -82.20924 38004 ft 395 kts 281°
2026-05-08 05:21 27.61796 -82.26876 38001 ft 395 kts 281°
2026-05-08 05:21 27.63275 -82.32816 37998 ft 395 kts 281°
2026-05-08 05:22 27.64761 -82.38798 37995 ft 395 kts 281°
2026-05-08 05:22 27.66229 -82.44730 37991 ft 395 kts 281°
2026-05-08 05:23 27.67706 -82.50693 37987 ft 395 kts 281°
2026-05-08 05:23 27.69179 -82.56653 37982 ft 395 kts 281°
2026-05-08 05:24 27.70651 -82.62622 37983 ft 395 kts 281°
2026-05-08 05:24 27.72114 -82.68582 37999 ft 395 kts 281°
2026-05-08 05:25 27.73572 -82.74515 38001 ft 395 kts 281°
2026-05-08 05:25 27.75038 -82.80493 38002 ft 395 kts 281°
2026-05-08 05:26 27.76491 -82.86441 38005 ft 394 kts 281°
2026-05-08 05:26 27.77934 -82.92354 38007 ft 392 kts 281°
2026-05-08 05:27 27.79371 -82.98257 38008 ft 391 kts 281°
2026-05-08 05:27 27.80806 -83.04161 38009 ft 390 kts 281°
2026-05-08 05:28 27.82241 -83.10071 38009 ft 390 kts 281°
2026-05-08 05:28 27.83665 -83.15951 38007 ft 390 kts 281°
2026-05-08 05:29 27.85096 -83.21872 38006 ft 390 kts 281°
2026-05-08 05:29 27.86514 -83.27750 38006 ft 390 kts 281°
2026-05-08 05:30 27.87941 -83.33681 38005 ft 390 kts 281°
2026-05-08 05:30 27.89357 -83.39578 38003 ft 390 kts 281°
2026-05-08 05:31 27.90771 -83.45475 38003 ft 390 kts 281°
2026-05-08 05:31 27.92188 -83.51401 38002 ft 390 kts 281°
2026-05-08 05:32 27.93592 -83.57285 38000 ft 390 kts 281°
2026-05-08 05:32 27.95000 -83.63197 38000 ft 390 kts 281°
2026-05-08 05:33 27.96404 -83.69117 38014 ft 390 kts 281°
2026-05-08 05:33 27.97803 -83.75007 38015 ft 390 kts 281°
2026-05-08 05:34 27.99209 -83.80944 38014 ft 390 kts 281°
2026-05-08 05:34 28.00605 -83.86857 38013 ft 390 kts 281°
2026-05-08 05:35 28.01992 -83.92744 38012 ft 390 kts 281°
2026-05-08 05:35 28.03391 -83.98686 38011 ft 390 kts 281°
2026-05-08 05:36 28.04778 -84.04593 38010 ft 390 kts 281°
2026-05-08 05:36 28.06163 -84.10501 38009 ft 390 kts 281°
2026-05-08 05:37 28.07551 -84.16438 38008 ft 390 kts 281°
2026-05-08 05:37 28.08932 -84.22359 38007 ft 390 kts 281°
2026-05-08 05:38 28.10310 -84.28277 38003 ft 390 kts 281°
2026-05-08 05:38 28.11683 -84.34183 37997 ft 390 kts 281°
2026-05-08 05:39 28.13054 -84.40098 37992 ft 390 kts 281°
2026-05-08 05:39 28.14423 -84.46011 37986 ft 390 kts 281°
2026-05-08 05:40 28.15795 -84.51956 37981 ft 390 kts 281°
2026-05-08 05:40 28.17154 -84.57853 37980 ft 390 kts 281°
2026-05-08 05:41 28.18512 -84.63789 37978 ft 390 kts 281°
2026-05-08 05:41 28.19875 -84.69725 37993 ft 390 kts 281°
2026-05-08 05:42 28.21234 -84.75660 37994 ft 389 kts 281°
2026-05-08 05:42 28.22587 -84.81580 37993 ft 389 kts 281°
2026-05-08 05:43 28.23946 -84.87541 37992 ft 389 kts 281°
2026-05-08 05:43 28.25289 -84.93444 37991 ft 389 kts 281°
2026-05-08 05:44 28.26639 -84.99401 37990 ft 389 kts 281°
2026-05-08 05:44 28.27972 -85.05302 37989 ft 390 kts 281°
2026-05-08 05:45 28.29315 -85.11254 37989 ft 390 kts 282°
2026-05-08 05:45 28.30659 -85.17217 37988 ft 390 kts 282°
2026-05-08 05:46 28.31998 -85.23164 37987 ft 391 kts 282°
2026-05-08 05:46 28.33341 -85.29132 37986 ft 391 kts 282°
2026-05-08 05:47 28.34679 -85.35098 37985 ft 391 kts 282°
2026-05-08 05:47 28.36016 -85.41077 37984 ft 391 kts 282°
2026-05-08 05:48 28.37341 -85.47016 37983 ft 391 kts 282°
2026-05-08 05:48 28.38673 -85.53003 37982 ft 391 kts 282°
2026-05-08 05:49 28.40003 -85.58992 37981 ft 391 kts 282°
2026-05-08 05:49 28.41325 -85.64955 37980 ft 391 kts 282°
2026-05-08 05:50 28.42639 -85.70918 37995 ft 391 kts 282°
2026-05-08 05:50 28.43953 -85.76869 37994 ft 391 kts 282°
2026-05-08 05:51 28.45274 -85.82867 37993 ft 391 kts 282°
2026-05-08 05:51 28.46584 -85.88834 37992 ft 391 kts 282°
2026-05-08 05:52 28.47895 -85.94817 37991 ft 391 kts 282°
2026-05-08 05:52 28.49198 -86.00777 37990 ft 391 kts 282°
2026-05-08 05:53 28.50503 -86.06757 37988 ft 391 kts 282°
2026-05-08 05:53 28.51811 -86.12767 37985 ft 391 kts 282°
2026-05-08 05:54 28.53108 -86.18739 37982 ft 391 kts 282°
2026-05-08 05:54 28.54402 -86.24715 37976 ft 391 kts 282°
2026-05-08 05:55 28.55696 -86.30701 37972 ft 391 kts 282°
2026-05-08 05:55 28.56984 -86.36671 37968 ft 391 kts 282°
2026-05-08 05:56 28.58277 -86.42684 37966 ft 391 kts 282°
2026-05-08 05:56 28.59559 -86.48656 37968 ft 391 kts 282°
2026-05-08 05:57 28.60841 -86.54639 37971 ft 391 kts 282°
2026-05-08 05:57 28.62125 -86.60650 37975 ft 391 kts 282°
2026-05-08 05:58 28.63398 -86.66634 37990 ft 390 kts 281°
2026-05-08 05:58 28.64669 -86.72617 37995 ft 391 kts 282°
2026-05-08 05:59 28.65938 -86.78590 37994 ft 390 kts 282°
2026-05-08 05:59 28.67212 -86.84606 37993 ft 390 kts 282°
2026-05-08 06:00 28.68473 -86.90584 37992 ft 390 kts 282°
2026-05-08 06:00 28.69730 -86.96566 37990 ft 387 kts 282°
2026-05-08 06:01 28.70973 -87.02490 37990 ft 385 kts 283°
2026-05-08 06:01 28.72215 -87.08417 37988 ft 384 kts 283°
2026-05-08 06:02 28.73448 -87.14302 37987 ft 383 kts 284°
2026-05-08 06:02 28.74683 -87.20203 37989 ft 383 kts 284°
2026-05-08 06:03 28.75910 -87.26083 37989 ft 383 kts 284°
2026-05-08 06:03 28.77134 -87.31970 37991 ft 383 kts 284°
2026-05-08 06:04 28.78360 -87.37881 37992 ft 383 kts 284°
2026-05-08 06:04 28.79584 -87.43796 37991 ft 383 kts 284°
2026-05-08 06:05 28.80794 -87.49658 37990 ft 383 kts 284°
2026-05-08 06:05 28.82016 -87.55591 37989 ft 383 kts 284°
2026-05-08 06:06 28.83222 -87.61464 37988 ft 383 kts 284°
2026-05-08 06:06 28.84429 -87.67365 38003 ft 383 kts 283°
2026-05-08 06:07 28.85638 -87.73277 38002 ft 383 kts 283°
2026-05-08 06:07 28.86846 -87.79194 38001 ft 383 kts 283°
2026-05-08 06:08 28.88047 -87.85093 38000 ft 383 kts 283°
2026-05-08 06:08 28.89249 -87.91014 37999 ft 383 kts 283°
2026-05-08 06:09 28.90447 -87.96930 37998 ft 383 kts 283°
2026-05-08 06:09 28.91639 -88.02825 37997 ft 383 kts 283°
2026-05-08 06:10 28.92837 -88.08768 37996 ft 383 kts 283°
2026-05-08 06:10 28.94020 -88.14673 37995 ft 383 kts 283°
2026-05-08 06:11 28.95207 -88.20586 37994 ft 383 kts 283°
2026-05-08 06:11 28.96392 -88.26508 37992 ft 383 kts 283°
2026-05-08 06:12 28.97575 -88.32424 37992 ft 385 kts 283°
2026-05-08 06:12 28.98761 -88.38384 37988 ft 386 kts 283°
2026-05-08 06:13 28.99945 -88.44357 37982 ft 387 kts 283°
2026-05-08 06:13 29.01138 -88.50371 37977 ft 389 kts 283°
2026-05-08 06:14 29.02325 -88.56374 37971 ft 390 kts 283°
2026-05-08 06:14 29.03518 -88.62431 37969 ft 391 kts 283°
2026-05-08 06:15 29.04709 -88.68485 37983 ft 393 kts 283°
2026-05-08 06:15 29.05904 -88.74570 37982 ft 394 kts 283°
2026-05-08 06:16 29.07097 -88.80675 37983 ft 395 kts 283°
2026-05-08 06:16 29.08284 -88.86771 37985 ft 394 kts 283°
2026-05-08 06:17 29.10069 -88.95943 37989 ft 394 kts 283°
2026-05-08 06:17 29.11250 -89.02041 38001 ft 393 kts 283°
2026-05-08 06:18 29.12430 -89.08131 38002 ft 393 kts 283°
2026-05-08 06:18 29.13603 -89.14206 38003 ft 393 kts 284°
2026-05-08 06:19 29.14779 -89.20306 37995 ft 393 kts 283°
2026-05-08 06:19 29.15942 -89.26385 37996 ft 393 kts 283°
2026-05-08 06:20 29.17111 -89.32477 37996 ft 393 kts 283°
2026-05-08 06:20 29.18270 -89.38553 37994 ft 393 kts 283°
2026-05-08 06:21 29.19432 -89.44658 37993 ft 393 kts 283°
2026-05-08 06:21 29.20590 -89.50751 37989 ft 393 kts 283°
2026-05-08 06:22 29.21747 -89.56857 37987 ft 393 kts 283°
2026-05-08 06:22 29.22893 -89.62929 37985 ft 393 kts 283°
2026-05-08 06:23 29.24047 -89.69039 38002 ft 394 kts 282°
2026-05-08 06:23 29.25187 -89.75121 38005 ft 393 kts 283°
2026-05-08 06:24 29.26339 -89.81257 38004 ft 393 kts 283°
2026-05-08 06:24 29.27476 -89.87341 38001 ft 392 kts 283°
2026-05-08 06:25 29.28617 -89.93449 38003 ft 393 kts 283°
2026-05-08 06:25 29.29752 -89.99549 38001 ft 393 kts 283°
2026-05-08 06:26 29.30887 -90.05666 38001 ft 393 kts 283°
2026-05-08 06:26 29.32010 -90.11751 38000 ft 393 kts 283°
2026-05-08 06:27 29.33145 -90.17888 37998 ft 393 kts 283°
2026-05-08 06:27 29.34262 -90.23972 37998 ft 393 kts 283°
2026-05-08 06:28 29.35385 -90.30081 37996 ft 393 kts 283°
2026-05-08 06:28 29.36509 -90.36225 37996 ft 393 kts 283°
2026-05-08 06:29 29.37624 -90.42336 37995 ft 393 kts 283°
2026-05-08 06:29 29.38738 -90.48458 37994 ft 393 kts 283°
2026-05-08 06:30 29.39845 -90.54554 37994 ft 393 kts 283°
2026-05-08 06:30 29.40954 -90.60681 37991 ft 393 kts 283°
2026-05-08 06:31 29.42054 -90.66777 38003 ft 393 kts 282°
2026-05-08 06:31 29.43159 -90.72913 38002 ft 393 kts 282°
2026-05-08 06:32 29.44258 -90.79035 37999 ft 393 kts 282°
2026-05-08 06:32 29.45356 -90.85166 37997 ft 393 kts 282°
2026-05-08 06:33 29.46456 -90.91328 37850 ft 395 kts 282°
2026-05-08 06:33 29.46999 -90.94369 37686 ft 395 kts 282°
2026-05-08 06:33 29.47547 -90.97446 37512 ft 393 kts 282°
2026-05-08 06:34 29.48090 -91.00517 37225 ft 393 kts 282°
2026-05-08 06:34 29.48631 -91.03578 36914 ft 390 kts 283°
2026-05-08 06:34 29.49166 -91.06585 36596 ft 387 kts 283°
2026-05-08 06:34 29.49702 -91.09613 36269 ft 384 kts 283°
2026-05-08 06:35 29.50225 -91.12593 35942 ft 382 kts 283°
2026-05-08 06:35 29.50752 -91.15578 35623 ft 381 kts 283°
2026-05-08 06:35 29.51278 -91.18559 35300 ft 381 kts 283°
2026-05-08 06:35 29.51798 -91.21506 34975 ft 380 kts 284°
2026-05-08 06:36 29.52323 -91.24488 34648 ft 381 kts 284°
2026-05-08 06:36 29.52845 -91.27445 34319 ft 382 kts 283°
2026-05-08 06:36 29.53369 -91.30450 33991 ft 383 kts 283°
2026-05-08 06:36 29.53897 -91.33463 33657 ft 385 kts 284°
2026-05-08 06:37 29.54422 -91.36463 33330 ft 386 kts 283°
2026-05-08 06:37 29.54950 -91.39492 32998 ft 389 kts 284°
2026-05-08 06:37 29.55484 -91.42534 32668 ft 391 kts 283°
2026-05-08 06:37 29.56011 -91.45562 32337 ft 392 kts 283°
2026-05-08 06:38 29.56540 -91.48630 32014 ft 394 kts 283°
2026-05-08 06:38 29.57079 -91.51729 31727 ft 395 kts 283°
2026-05-08 06:38 29.57616 -91.54829 31456 ft 397 kts 284°
2026-05-08 06:38 29.58153 -91.57927 31187 ft 399 kts 283°
2026-05-08 06:39 29.58697 -91.61069 30905 ft 400 kts 283°
2026-05-08 06:39 29.59235 -91.64188 30620 ft 402 kts 283°
2026-05-08 06:39 29.59774 -91.67334 30353 ft 403 kts 283°
2026-05-08 06:39 29.60313 -91.70458 30108 ft 404 kts 283°
2026-05-08 06:40 29.60864 -91.73666 29857 ft 406 kts 283°
2026-05-08 06:40 29.61407 -91.76834 29603 ft 407 kts 283°
2026-05-08 06:40 29.61949 -91.80000 29343 ft 408 kts 283°
2026-05-08 06:40 29.62496 -91.83207 29074 ft 409 kts 283°
2026-05-08 06:41 29.63044 -91.86410 28813 ft 410 kts 283°
2026-05-08 06:41 29.63597 -91.89647 28563 ft 411 kts 283°
2026-05-08 06:41 29.64140 -91.92840 28315 ft 413 kts 283°
2026-05-08 06:41 29.64694 -91.96092 28057 ft 415 kts 283°
2026-05-08 06:42 29.65245 -91.99336 27794 ft 416 kts 283°
2026-05-08 06:42 29.65792 -92.02581 27527 ft 417 kts 283°
2026-05-08 06:42 29.66350 -92.05872 27264 ft 419 kts 283°
2026-05-08 06:42 29.66905 -92.09158 27016 ft 420 kts 283°
2026-05-08 06:43 29.67463 -92.12461 26761 ft 421 kts 283°
2026-05-08 06:43 29.68016 -92.15745 26503 ft 423 kts 283°
2026-05-08 06:43 29.68574 -92.19069 26237 ft 424 kts 282°
2026-05-08 06:43 29.69135 -92.22414 25966 ft 426 kts 283°
2026-05-08 06:44 29.69688 -92.25710 25712 ft 427 kts 283°
2026-05-08 06:44 29.70249 -92.29054 25463 ft 428 kts 282°
2026-05-08 06:44 29.70810 -92.32419 25209 ft 429 kts 282°
2026-05-08 06:44 29.71371 -92.35793 24949 ft 430 kts 282°
2026-05-08 06:45 29.71935 -92.39175 24683 ft 432 kts 282°
2026-05-08 06:45 29.72503 -92.42600 24409 ft 434 kts 282°
2026-05-08 06:45 29.73071 -92.46008 24153 ft 435 kts 282°
2026-05-08 06:45 29.73636 -92.49420 23903 ft 436 kts 282°
2026-05-08 06:46 29.74203 -92.52844 23651 ft 437 kts 282°
2026-05-08 06:46 29.74766 -92.56277 23393 ft 439 kts 282°
2026-05-08 06:46 29.75333 -92.59712 23126 ft 440 kts 282°
2026-05-08 06:46 29.75900 -92.63156 22839 ft 439 kts 282°
2026-05-08 06:47 29.76467 -92.66602 22475 ft 437 kts 282°
2026-05-08 06:47 29.77027 -92.70014 22137 ft 431 kts 282°
2026-05-08 06:47 29.77577 -92.73380 21806 ft 426 kts 282°
2026-05-08 06:47 29.78118 -92.76673 21481 ft 422 kts 282°
2026-05-08 06:48 29.78659 -92.80011 21148 ft 419 kts 282°
2026-05-08 06:48 29.79193 -92.83281 20822 ft 417 kts 282°
2026-05-08 06:48 29.79724 -92.86545 20495 ft 415 kts 282°
2026-05-08 06:48 29.80256 -92.89816 20166 ft 414 kts 282°
2026-05-08 06:49 29.80779 -92.93045 19841 ft 413 kts 282°
2026-05-08 06:49 29.81301 -92.96269 19515 ft 412 kts 282°
2026-05-08 06:49 29.81825 -92.99515 19187 ft 411 kts 282°
2026-05-08 06:49 29.82343 -93.02724 18862 ft 411 kts 282°
2026-05-08 06:50 29.82863 -93.05956 18534 ft 411 kts 282°
2026-05-08 06:50 29.83384 -93.09193 18205 ft 410 kts 282°
2026-05-08 06:50 29.83903 -93.12431 17875 ft 410 kts 282°
2026-05-08 06:50 29.84415 -93.15618 17551 ft 411 kts 282°
2026-05-08 06:51 29.84928 -93.18818 17419 ft 391 kts 282°
2026-05-08 06:51 29.85382 -93.21677 17572 ft 339 kts 282°
2026-05-08 06:51 29.85800 -93.24299 17716 ft 330 kts 283°
2026-05-08 06:51 29.86215 -93.26900 17903 ft 331 kts 283°
2026-05-08 06:52 29.86630 -93.29501 18077 ft 332 kts 283°
2026-05-08 06:52 29.87048 -93.32128 18244 ft 333 kts 283°
2026-05-08 06:52 29.87461 -93.34725 18401 ft 334 kts 283°
2026-05-08 06:52 29.87879 -93.37360 18552 ft 335 kts 283°
2026-05-08 06:53 29.88296 -93.39991 18695 ft 335 kts 283°
2026-05-08 06:53 29.88719 -93.42665 18831 ft 336 kts 283°
2026-05-08 06:53 29.89135 -93.45295 18956 ft 337 kts 283°
2026-05-08 06:53 29.89553 -93.47948 19074 ft 338 kts 283°
2026-05-08 06:54 29.89976 -93.50631 19186 ft 338 kts 283°
2026-05-08 06:54 29.90393 -93.53283 19287 ft 339 kts 283°
2026-05-08 06:54 29.90812 -93.55955 19381 ft 340 kts 283°
2026-05-08 06:54 29.91236 -93.58652 19467 ft 341 kts 283°
2026-05-08 06:55 29.91655 -93.61330 19544 ft 342 kts 283°
2026-05-08 06:55 29.92075 -93.64015 19613 ft 343 kts 283°
2026-05-08 06:55 29.92500 -93.66738 19682 ft 343 kts 282°
2026-05-08 06:55 29.92920 -93.69426 19747 ft 344 kts 282°
2026-05-08 06:56 29.93344 -93.72144 19803 ft 345 kts 282°
2026-05-08 06:56 29.93765 -93.74852 19850 ft 346 kts 282°
2026-05-08 06:56 29.94193 -93.77602 19888 ft 348 kts 282°
2026-05-08 06:56 29.94621 -93.80363 19918 ft 349 kts 282°
2026-05-08 06:57 29.95045 -93.83099 19938 ft 350 kts 282°
2026-05-08 06:57 29.95472 -93.85856 19947 ft 350 kts 282°
2026-05-08 06:57 29.95896 -93.88602 19946 ft 350 kts 282°
2026-05-08 06:57 29.96323 -93.91370 19937 ft 350 kts 282°
2026-05-08 06:58 29.96747 -93.94125 19918 ft 350 kts 282°
2026-05-08 06:58 29.97172 -93.96890 19889 ft 350 kts 282°
2026-05-08 06:58 29.97598 -93.99663 19852 ft 350 kts 282°
2026-05-08 06:58 29.98019 -94.02403 19805 ft 350 kts 282°
2026-05-08 06:59 29.98465 -94.05154 19750 ft 350 kts 283°
2026-05-08 06:59 29.98916 -94.07906 19685 ft 350 kts 283°
2026-05-08 06:59 29.99364 -94.10653 19611 ft 349 kts 283°
2026-05-08 06:59 29.99816 -94.13420 19527 ft 349 kts 283°
2026-05-08 07:00 30.00260 -94.16148 19436 ft 349 kts 283°
2026-05-08 07:00 30.00709 -94.18909 19335 ft 349 kts 283°
2026-05-08 07:00 30.01151 -94.21633 19226 ft 349 kts 283°
2026-05-08 07:00 30.01596 -94.24374 19218 ft 348 kts 283°
2026-05-08 07:01 30.02045 -94.27148 19136 ft 349 kts 283°
2026-05-08 07:01 30.02489 -94.29893 18985 ft 348 kts 283°
2026-05-08 07:01 30.02929 -94.32621 18831 ft 348 kts 283°
2026-05-08 07:01 30.03369 -94.35350 18670 ft 347 kts 283°
2026-05-08 07:02 30.03810 -94.38091 18500 ft 347 kts 283°
2026-05-08 07:02 30.04249 -94.40825 18322 ft 347 kts 283°
2026-05-08 07:02 30.04683 -94.43531 18138 ft 346 kts 283°
2026-05-08 07:02 30.05125 -94.46287 17943 ft 346 kts 283°
2026-05-08 07:03 30.05559 -94.49004 17742 ft 345 kts 283°
2026-05-08 07:03 30.05993 -94.51722 17534 ft 345 kts 283°
2026-05-08 07:03 30.06422 -94.54412 17320 ft 344 kts 283°
2026-05-08 07:03 30.06854 -94.57129 17097 ft 344 kts 283°
2026-05-08 07:04 30.07289 -94.59861 16864 ft 344 kts 283°
2026-05-08 07:04 30.07714 -94.62542 16628 ft 343 kts 283°
2026-05-08 07:04 30.08147 -94.65273 16381 ft 343 kts 282°
2026-05-08 07:04 30.08571 -94.67958 16139 ft 342 kts 282°
2026-05-08 07:05 30.08996 -94.70649 15887 ft 342 kts 282°
2026-05-08 07:05 30.09423 -94.73357 15624 ft 342 kts 282°
2026-05-08 07:05 30.09847 -94.76046 15355 ft 341 kts 282°
2026-05-08 07:05 30.10267 -94.78721 15082 ft 341 kts 282°
2026-05-08 07:06 30.10689 -94.81409 14801 ft 340 kts 282°
2026-05-08 07:06 30.11112 -94.84102 14510 ft 340 kts 282°
2026-05-08 07:06 30.11533 -94.86795 14209 ft 340 kts 281°
2026-05-08 07:06 30.11950 -94.89462 13901 ft 340 kts 281°
2026-05-08 07:07 30.12368 -94.92134 13585 ft 340 kts 281°
2026-05-08 07:07 30.12792 -94.94850 13254 ft 340 kts 281°
2026-05-08 07:07 30.13205 -94.97498 12923 ft 340 kts 281°
2026-05-08 07:07 30.13625 -95.00201 12578 ft 340 kts 281°
2026-05-08 07:08 30.14045 -95.02895 12228 ft 340 kts 281°
2026-05-08 07:08 30.14457 -95.05551 11843 ft 339 kts 281°
2026-05-08 07:08 30.14875 -95.08247 11512 ft 337 kts 281°
2026-05-08 07:08 30.15284 -95.10886 11267 ft 336 kts 281°
2026-05-08 07:09 30.15695 -95.13551 11131 ft 335 kts 281°
2026-05-08 07:09 30.16101 -95.16176 11102 ft 335 kts 281°
2026-05-08 07:09 30.16511 -95.18836 11141 ft 335 kts 281°
2026-05-08 07:09 30.16920 -95.21498 11214 ft 336 kts 281°
2026-05-08 07:10 30.17327 -95.24143 11327 ft 341 kts 281°
2026-05-08 07:10 30.17742 -95.26844 11417 ft 339 kts 281°
2026-05-08 07:10 30.18151 -95.29508 11522 ft 337 kts 281°
2026-05-08 07:10 30.18557 -95.32162 11634 ft 337 kts 281°
2026-05-08 07:11 30.18968 -95.34850 11750 ft 338 kts 281°
2026-05-08 07:11 30.19378 -95.37537 11868 ft 339 kts 281°
2026-05-08 07:11 30.19785 -95.40199 11986 ft 339 kts 281°
2026-05-08 07:11 30.20195 -95.42894 12105 ft 339 kts 281°
2026-05-08 07:12 30.20604 -95.45580 12103 ft 343 kts 281°
2026-05-08 07:12 30.21015 -95.48286 12108 ft 347 kts 281°
2026-05-08 07:12 30.21438 -95.51070 12112 ft 350 kts 281°
2026-05-08 07:12 30.21856 -95.53826 12131 ft 352 kts 281°
2026-05-08 07:13 30.22028 -95.56643 12312 ft 350 kts 266°
2026-05-08 07:13 30.21489 -95.59361 12497 ft 348 kts 250°
2026-05-08 07:13 30.20306 -95.61766 12664 ft 339 kts 233°
2026-05-08 07:13 30.18647 -95.63619 12496 ft 333 kts 217°
2026-05-08 07:14 30.16616 -95.64826 12285 ft 327 kts 203°
2026-05-08 07:14 30.14543 -95.65769 12151 ft 319 kts 202°
2026-05-08 07:14 30.12481 -95.66705 11664 ft 323 kts 202°
2026-05-08 07:14 30.10380 -95.67657 11149 ft 328 kts 202°
2026-05-08 07:15 30.08250 -95.68623 10632 ft 331 kts 202°
2026-05-08 07:15 30.06114 -95.69590 10118 ft 335 kts 202°
2026-05-08 07:15 30.03934 -95.70578 9598 ft 338 kts 202°
2026-05-08 07:15 30.01752 -95.71566 9081 ft 340 kts 202°
2026-05-08 07:16 29.99553 -95.72562 8563 ft 342 kts 202°
2026-05-08 07:16 29.97331 -95.73568 8042 ft 344 kts 202°
2026-05-08 07:16 29.95106 -95.74575 7521 ft 345 kts 201°
2026-05-08 07:16 29.92904 -95.75571 7008 ft 346 kts 201°
2026-05-08 07:17 29.90668 -95.76584 6487 ft 347 kts 201°
2026-05-08 07:17 29.88425 -95.77599 5942 ft 340 kts 201°
2026-05-08 07:17 29.86278 -95.78569 5386 ft 323 kts 201°
2026-05-08 07:17 29.84271 -95.79477 4833 ft 307 kts 201°
2026-05-08 07:18 29.82328 -95.80357 4251 ft 295 kts 201°
2026-05-08 07:18 29.80457 -95.81203 3679 ft 286 kts 201°
2026-05-08 07:18 29.78644 -95.82023 3097 ft 279 kts 201°
2026-05-08 07:18 29.76856 -95.82831 2530 ft 273 kts 201°
2026-05-08 07:19 29.75111 -95.83620 2030 ft 265 kts 201°
2026-05-08 07:19 29.73469 -95.84355 1952 ft 244 kts 201°
2026-05-08 07:19 29.71921 -95.85055 1962 ft 235 kts 201°
2026-05-08 07:19 29.70439 -95.85724 1953 ft 225 kts 201°
2026-05-08 07:20 29.69013 -95.86369 1942 ft 216 kts 201°
2026-05-08 07:20 29.67658 -95.86982 1942 ft 206 kts 201°
2026-05-08 07:20 29.66399 -95.87730 1933 ft 197 kts 219°
2026-05-08 07:20 29.65534 -95.88868 1944 ft 187 kts 242°
2026-05-08 07:21 29.65143 -95.90249 1945 ft 176 kts 267°
2026-05-08 07:21 29.65278 -95.91595 1946 ft 164 kts 293°
2026-05-08 07:21 29.65863 -95.92639 1942 ft 152 kts 321°
2026-05-08 07:21 29.66742 -95.93195 1925 ft 138 kts 351°
2026-05-08 07:22 29.67690 -95.93164 1740 ft 146 kts 19°
2026-05-08 07:22 29.68542 -95.92550 1764 ft 141 kts 50°
2026-05-08 07:22 29.69157 -95.91740 1824 ft 137 kts 27°
2026-05-08 07:22 29.70143 -95.91496 1850 ft 143 kts
2026-05-08 07:23 29.70926 -95.91113 2219 ft 128 kts 45°
2026-05-08 07:23 29.71414 -95.90108 2132 ft 153 kts 75°
2026-05-08 07:23 29.71574 -95.88934 2410 ft 158 kts 82°
2026-05-08 07:23 29.71843 -95.87520 2084 ft 198 kts 69°
2026-05-08 07:24 29.72476 -95.86146 2506 ft 192 kts 54°
2026-05-08 07:24 29.73316 -95.84785 2191 ft 225 kts 57°
2026-05-08 07:24 29.73992 -95.83175 2540 ft 220 kts 68°
2026-05-08 07:24 29.74468 -95.81490 2633 ft 230 kts 72°
2026-05-08 07:25 29.74919 -95.79604 2270 ft 256 kts 76°
2026-05-08 07:25 29.75006 -95.77578 2415 ft 249 kts 96°
2026-05-08 07:25 29.75334 -95.73892 2756 ft 232 kts 56°
2026-05-08 07:26 29.76463 -95.72553 2592 ft 240 kts 38°
2026-05-08 07:26 29.77699 -95.71276 2616 ft 240 kts 47°
2026-05-08 07:26 29.78747 -95.69769 2515 ft 245 kts 52°
2026-05-08 07:26 29.79774 -95.68182 2399 ft 249 kts 52°
2026-05-08 07:27 29.80821 -95.66581 2432 ft 246 kts 52°
2026-05-08 07:27 29.81816 -95.65018 2489 ft 243 kts 54°
2026-05-08 07:27 29.82659 -95.63333 2375 ft 248 kts 66°
2026-05-08 07:27 29.82891 -95.61402 2497 ft 241 kts 98°
2026-05-08 07:28 29.82367 -95.59673 2928 ft 219 kts 109°
2026-05-08 07:28 29.81954 -95.57909 2378 ft 247 kts 98°
2026-05-08 07:28 29.81732 -95.55920 2179 ft 251 kts 94°
2026-05-08 07:28 29.81687 -95.53940 2314 ft 243 kts 88°
2026-05-08 07:29 29.81717 -95.51999 2145 ft 249 kts 90°
2026-05-08 07:29 29.81487 -95.50035 2227 ft 239 kts 105°
2026-05-08 07:29 29.80675 -95.48474 2251 ft 225 kts 138°
2026-05-08 07:29 29.79505 -95.47528 2672 ft 183 kts 137°
2026-05-08 07:30 29.78645 -95.46504 2564 ft 180 kts 127°
2026-05-08 07:30 29.77813 -95.45353 2193 ft 191 kts 130°
2026-05-08 07:30 29.76966 -95.44214 2107 ft 185 kts 124°
2026-05-08 07:30 29.76284 -95.42937 1868 ft 188 kts 117°
2026-05-08 07:31 29.75639 -95.41635 1717 ft 186 kts 122°
2026-05-08 07:31 29.74829 -95.40472 1625 ft 181 kts 130°
2026-05-08 07:31 29.74058 -95.39494 1938 ft 154 kts 126°
2026-05-08 07:31 29.73416 -95.38542 1909 ft 157 kts 130°
2026-05-08 07:32 29.72682 -95.37645 2122 ft 141 kts 129°
2026-05-08 07:32 29.71989 -95.36819 2026 ft 153 kts 135°
2026-05-08 07:32 29.71217 -95.35922 1995 ft 157 kts 127°
2026-05-08 07:32 29.70515 -95.34954 1966 ft 163 kts 135°
2026-05-08 07:33 29.69698 -95.34000 1943 ft 165 kts 130°
2026-05-08 07:33 29.68896 -95.33092 2064 ft 161 kts 138°
2026-05-08 07:33 29.68097 -95.32215 2101 ft 157 kts 130°
2026-05-08 07:33 29.67357 -95.31332 1913 ft 157 kts 134°
2026-05-08 07:34 29.66576 -95.30438 1641 ft 155 kts 129°
2026-05-08 07:34 29.65824 -95.29519 1087 ft 165 kts 131°
2026-05-08 07:34 29.65066 -95.28534 490 ft 167 kts 133°
2026-05-08 07:34 29.64277 -95.27644 308 ft 153 kts 130°
2026-05-08 07:35 29.63556 -95.26888 1229 ft 129 kts 137°
2026-05-08 07:35 29.63029 -95.26122 1589 ft 139 kts 102°
2026-05-08 07:35 29.63472 -95.25119 1705 ft 154 kts 25°
2026-05-08 07:35 29.64481 -95.25086 2280 ft 154 kts 347°
2026-05-08 07:36 29.65593 -95.25409 2400 ft 178 kts 353°
2026-05-08 07:36 29.66837 -95.25349 2793 ft 179 kts 13°
2026-05-08 07:36 29.68097 -95.25079 2868 ft 203 kts
2026-05-08 07:36 29.69642 -95.24966 2377 ft 234 kts
2026-05-08 07:37 29.71256 -95.25107 2442 ft 229 kts 351°
2026-05-08 07:37 29.72707 -95.25633 2704 ft 215 kts 339°
2026-05-08 07:37 29.74078 -95.26399 2375 ft 232 kts 334°
2026-05-08 07:37 29.75552 -95.27246 2244 ft 230 kts 335°
2026-05-08 07:38 29.76744 -95.28152 3068 ft 194 kts 323°
2026-05-08 07:38 29.77847 -95.29213 2408 ft 236 kts 324°
2026-05-08 07:38 29.79079 -95.30260 3077 ft 195 kts 322°
2026-05-08 07:38 29.79879 -95.31287 3668 ft 177 kts 305°
2026-05-08 07:39 29.80427 -95.32690 3389 ft 197 kts 291°
2026-05-08 07:39 29.80837 -95.34030 3946 ft 175 kts 296°
2026-05-08 07:39 29.81478 -95.35191 4213 ft 166 kts 315°
2026-05-08 07:39 29.82356 -95.36012 4436 ft 163 kts 327°
2026-05-08 07:40 29.83291 -95.36803 4478 ft 173 kts 319°
2026-05-08 07:40 29.84056 -95.37916 4515 ft 182 kts 303°
2026-05-08 07:40 29.84673 -95.39172 4786 ft 175 kts 302°
2026-05-08 07:40 29.85213 -95.40389 4957 ft 177 kts 285°
2026-05-08 07:41 29.84848 -95.41834 4095 ft 225 kts 205°
2026-05-08 07:41 29.83526 -95.41939 5010 ft 171 kts 193°
2026-05-08 07:41 29.82589 -95.42779 5018 ft 175 kts 224°
2026-05-08 07:41 29.81454 -95.43277 4972 ft 189 kts 178°
2026-05-08 07:42 29.80239 -95.42657 4852 ft 198 kts 131°
2026-05-08 07:42 29.79301 -95.41651 5308 ft 176 kts 141°
2026-05-08 07:42 29.78337 -95.40688 5066 ft 200 kts 137°
2026-05-08 07:42 29.77141 -95.39703 4730 ft 219 kts 146°
2026-05-08 07:43 29.75998 -95.38600 4786 ft 214 kts 138°
2026-05-08 07:43 29.74627 -95.37812 4616 ft 224 kts 154°
2026-05-08 07:43 29.73445 -95.36723 4611 ft 220 kts 124°
2026-05-08 07:43 29.72889 -95.35112 4480 ft 221 kts 98°
2026-05-08 07:44 29.72473 -95.33427 4542 ft 215 kts 102°
2026-05-08 07:44 29.72410 -95.31664 4335 ft 221 kts 91°
2026-05-08 07:44 29.72371 -95.29987 4717 ft 200 kts 86°
2026-05-08 07:44 29.72686 -95.28466 4673 ft 204 kts 57°
2026-05-08 07:45 29.74024 -95.27560 3159 ft 260 kts 21°
2026-05-08 07:45 29.75524 -95.26883 4083 ft 204 kts 20°
2026-05-08 07:45 29.76652 -95.26481 4951 ft 162 kts 14°
2026-05-08 07:45 29.77895 -95.26227 4215 ft 210 kts
2026-05-08 07:46 29.79410 -95.26004 3652 ft 222 kts 10°
2026-05-08 07:46 29.80763 -95.25570 4150 ft 186 kts 22°
2026-05-08 07:46 29.81891 -95.24956 4300 ft 174 kts 17°
2026-05-08 07:46 29.83041 -95.24711 4428 ft 164 kts
2026-05-08 07:47 29.84147 -95.24911 4454 ft 162 kts 338°
2026-05-08 07:47 29.85073 -95.25668 4445 ft 164 kts 313°
2026-05-08 07:47 29.85614 -95.26814 4434 ft 167 kts 288°
2026-05-08 07:47 29.85676 -95.28149 4422 ft 170 kts 262°
2026-05-08 07:48 29.85225 -95.29421 4411 ft 173 kts 237°
2026-05-08 07:48 29.84375 -95.30414 4430 ft 175 kts 223°
2026-05-08 07:48 29.83456 -95.31337 4470 ft 175 kts 222°
2026-05-08 07:48 29.82543 -95.32253 4509 ft 176 kts 222°
2026-05-08 07:49 29.81615 -95.33186 4546 ft 176 kts 222°
2026-05-08 07:49 29.80760 -95.34177 4568 ft 176 kts 237°
2026-05-08 07:49 29.80114 -95.35375 4602 ft 175 kts 240°
2026-05-08 07:49 29.79467 -95.36562 4642 ft 175 kts 239°
2026-05-08 07:50 29.78759 -95.37697 4669 ft 177 kts 228°
2026-05-08 07:50 29.77864 -95.38661 4697 ft 177 kts 218°
2026-05-08 07:50 29.76737 -95.39267 4708 ft 178 kts 192°
2026-05-08 07:50 29.75509 -95.39284 4727 ft 178 kts 167°
2026-05-08 07:51 29.74397 -95.38734 4746 ft 176 kts 143°
2026-05-08 07:51 29.73579 -95.37710 4766 ft 174 kts 118°
2026-05-08 07:51 29.73084 -95.36441 4785 ft 174 kts 119°
2026-05-08 07:51 29.72253 -95.35428 4802 ft 177 kts 144°
2026-05-08 07:52 29.71128 -95.34892 4820 ft 179 kts 168°
2026-05-08 07:52 29.69882 -95.34433 4518 ft 190 kts 140°
2026-05-08 07:52 29.68835 -95.33303 3576 ft 235 kts 135°
2026-05-08 07:52 29.67590 -95.31957 2759 ft 245 kts 135°
2026-05-08 07:53 29.66526 -95.30637 2765 ft 217 kts 128°
2026-05-08 07:53 29.65617 -95.29259 1643 ft 230 kts 125°
2026-05-08 07:53 29.64526 -95.27885 177 ft 239 kts 134°
2026-05-08 07:53 29.63497 -95.26683 167 ft 189 kts 138°
2026-05-08 07:54 29.62680 -95.25706 198 ft 147 kts 136°
2026-05-08 07:54 29.62294 -95.24865 50 ft 115 kts 72°
2026-05-08 07:54 29.62429 -95.24018 62 ft 114 kts 76°
2026-05-08 07:54 29.62759 -95.23196 311 ft 116 kts 41°
2026-05-08 07:55 29.63524 -95.22802 175 ft 122 kts 12°